BIEG

Egilsstaðir  Airport

Egilsstaðir, Iceland
Issued Wind Visibility Ceiling Temperature Dew Point Humidity Barometer
Nov-18
04:00 UTC
310°
17 KTS
10,000+ meters Broken
2,500' AGL
C
34° F
-3° C
27° F
75% 29.97" Hg
1015 hPa
MVFR
Nov-18
03:00 UTC
310°
17 KTS
Gust 27 KTS
10,000+ meters Broken
2,500' AGL
C
34° F
-3° C
27° F
75% 29.97" Hg
1015 hPa
MVFR
Nov-18
02:00 UTC
Varies @3 KTS 10,000+ meters Broken
2,500' AGL
C
34° F
-4° C
25° F
70% 29.97" Hg
1015 hPa
MVFR
Nov-18
01:00 UTC
070°
8 KTS
10,000+ meters Broken
2,500' AGL
C
34° F
-4° C
25° F
70% 29.94" Hg
1014 hPa
MVFR
Nov-18
00:00 UTC
140°
5 KTS
10,000+ meters Broken
2,500' AGL
C
34° F
-3° C
27° F
75% 29.91" Hg
1013 hPa
MVFR
Nov-17
23:00 UTC
050°
5 KTS
10,000+ meters Broken
3,000' AGL
C
34° F
-3° C
27° F
75% 29.88" Hg
1012 hPa
MVFR
Nov-17
22:00 UTC
010°
10 KTS
Gust 20 KTS
10,000+ meters Broken
3,000' AGL
C
34° F
-4° C
25° F
70% 29.85" Hg
1011 hPa
MVFR
Nov-17
21:00 UTC
350°
10 KTS
Gust 20 KTS
10,000+ meters Broken
3,000' AGL
C
34° F
-4° C
25° F
70% 29.82" Hg
1010 hPa
MVFR
Nov-17
20:00 UTC
320°
13 KTS
Gust 23 KTS
10,000+ meters Broken
3,000' AGL
C
34° F
-4° C
25° F
70% 29.79" Hg
1009 hPa
MVFR
Nov-17
19:00 UTC
320°
13 KTS
10,000+ meters Broken
3,000' AGL
C
34° F
-4° C
25° F
70% 29.79" Hg
1009 hPa
MVFR
Nov-17
18:00 UTC
330°
11 KTS
10,000+ meters Broken
3,000' AGL
C
34° F
-4° C
25° F
70% 29.73" Hg
1007 hPa
MVFR
Nov-17
17:00 UTC
330°
15 KTS
10,000+ meters Broken
3,000' AGL
C
34° F
-3° C
27° F
75% 29.7" Hg
1006 hPa
MVFR
Nov-17
16:00 UTC
310°
19 KTS
10,000+ meters Broken
3,000' AGL
C
34° F
-4° C
25° F
70% 29.68" Hg
1005 hPa
MVFR
Nov-17
15:00 UTC
130°
7 KTS
10,000+ meters Broken
5,000' AGL
C
32° F
-6° C
21° F
64% 29.68" Hg
1005 hPa
VFR
Nov-17
14:00 UTC
250°
7 KTS
10,000+ meters Broken
4,500' AGL
C
34° F
-6° C
21° F
60% 29.68" Hg
1005 hPa
VFR
Nov-17
13:24 UTC
250°
6 KTS
10,000+ meters Broken
3,000' AGL
C
34° F
-6° C
21° F
60% 29.68" Hg
1005 hPa
MVFR
Nov-17
12:00 UTC
240°
6 KTS
10,000+ meters Broken
3,000' AGL
C
34° F
-5° C
23° F
65% 29.65" Hg
1004 hPa
MVFR
Nov-17
11:00 UTC
270°
12 KTS
Gust 27 KTS
10,000+ meters Broken
3,000' AGL
C
34° F
-5° C
23° F
65% 29.65" Hg
1004 hPa
MVFR
Nov-17
10:00 UTC
250°
8 KTS
10,000+ meters Broken
3,000' AGL
C
34° F
-5° C
23° F
65% 29.62" Hg
1003 hPa
MVFR
Nov-17
09:00 UTC
240°
7 KTS
10,000+ meters Broken
3,500' AGL
C
34° F
-5° C
23° F
65% 29.62" Hg
1003 hPa
VFR
Nov-17
08:00 UTC
230°
5 KTS
10,000+ meters Overcast
4,000' AGL
C
34° F
-5° C
23° F
65% 29.59" Hg
1002 hPa
VFR
Nov-17
07:00 UTC
210°
6 KTS
10,000+ meters Overcast
4,000' AGL
C
34° F
-5° C
23° F
65% 29.56" Hg
1001 hPa
VFR
Nov-17
06:00 UTC
Varies @5 KTS 10,000+ meters Overcast
5,000' AGL
C
34° F
-5° C
23° F
65% 29.56" Hg
1001 hPa
VFR
Nov-17
05:00 UTC
Varies @8 KTS 10,000+ meters Overcast
7,000' AGL
C
34° F
-5° C
23° F
65% 29.56" Hg
1001 hPa
VFR